This demonstration page uses our WeatherBlox Daily Observations layout. Learn more.

39.92423, -83.80882

Hourly Observations for September 21, 2018

Temp ( °F °C ) Dew Point ( °F °C ) Humidity (%) Winds ( mph kmh ) Pressure ( in mb ) Visibility ( mi km ) Precip ( " mm )
12:56 am 00:56 Mostly Clear 77 25 70 21.1 79 79 S 7 11 30 1016 10 16.0934 0 0
1:56 am 01:56 Clear 76 24.4 70 21.1 82 82 S 8 13 30 1016 10 16.0934 0 0
3:56 am 03:56 Clear 75 23.9 70 21.1 84 84 SSW 7 11 29.99 1016 10 16.0934 0 0
4:56 am 04:56 Clear 75 23.9 70 21.1 84 84 SSW 8 13 29.99 1016 10 16.0934 0 0
5:56 am 05:56 Clear 74 23.3 70 21.1 88 88 SSW 7 11 30 1016 10 16.0934 0 0
6:56 am 06:56 Clear 74 23.3 69 20.6 85 85 SSW 8 13 29.99 1016 10 16.0934 0 0
7:56 am 07:56 Sunny 74 23.3 68 20 82 82 SSW 7 11 29.99 1016 10 16.0934 0 0
8:56 am 08:56 Sunny 77 25 69 20.6 77 77 SSW 13 20 30 1016 10 16.0934 0 0
9:56 am 09:56 Sunny 80 26.7 69 20.6 69 69 SW 13 20 29.99 1016 10 16.0934 0 0
10:56 am 10:56 Partly Cloudy 83 28.3 70 21.1 65 65 SW 16 26 29.99 1016 10 16.0934 0 0
11:56 am 11:56 Sunny 84 28.9 70 21.1 63 63 SSW 16 26 29.98 1015 10 16.0934 0 0
12:56 pm 12:56 Sunny 86 30 71 21.7 61 61 SSW 14 22 29.97 1015 10 16.0934 0 0
1:56 pm 13:56 Partly Cloudy 87 30.6 71 21.7 59 59 SW 17 28 29.96 1014 10 16.0934 0 0
2:56 pm 14:56 Partly Cloudy 88 31.1 71 21.7 57 57 SW 16 26 29.93 1014 10 16.0934 0 0
3:56 pm 15:56 Mostly Cloudy 86 30 71 21.7 61 61 SW 14 22 29.92 1013 10 16.0934 0 0
4:56 pm 16:56 Cloudy with Heavy Rain 79 26.1 75 23.9 88 88 W 14 22 29.93 1014 7 11.26538 0.06 1.524
5:08 pm 17:08 Cloudy with Heavy Thunderstorms 75 24 73 23 94 94 S 9 15 29.91 1013 2.5 4.02335 0.27 6.858
5:17 pm 17:17 Cloudy with Light Thunderstorms 73 23 72 22 94 94 S 8 13 29.91 1013 5 8.0467 0.28 7.112
5:56 pm 17:56 Mostly Cloudy with Nearby Thunderstorms 77 25 74 23.3 90 90 WSW 8 13 29.93 1014 10 16.0934 0.28 7.112
6:03 pm 18:03 Mostly Cloudy 77 25 73 23 89 89 W 8 13 29.91 1013 10 16.0934 0 0
6:56 pm 18:56 Sunny 77 25 72 22.2 85 85 W 7 11 29.96 1015 10 16.0934 0 0
7:56 pm 19:56 Clear 75 23.9 70 21.1 84 84 WSW 7 11 29.99 1016 10 16.0934 0 0
9:56 pm 21:56 Mostly Clear 75 23.9 67 19.4 76 76 WNW 9 15 30.05 1018 10 16.0934 0 0
10:56 pm 22:56 Clear 73 22.8 61 16.1 66 66 NNW 15 24 30.09 1019 10 16.0934 0 0
11:56 pm 23:56 Clear 67 19.4 56 13.3 68 68 NNW 12 19 30.12 1020 10 16.0934 0 0

Powered by AerisWeather